Location: Ku?niki
(51.4449°N, 17.8974°E)
Time: 11:05:34
(UTC+00:00)

Cosmos 2227 Rocket - Pass Details

Date: 18 September 2020
Orbit: 840 x 844 km, 71.0° (Epoch: 25 October)

Event Time Altitude Azimuth Distance (km) Brightness Sun altitude
Rises 23:34:56 0° 331° (NNW) 3,407 5.9 -36.0°
Reaches altitude 10° 23:37:39 10° 341° (NNW) 2,469 5.2 -35.9°
Maximum altitude 23:42:45 33° 45° (NE) 1,377 3.6 -35.6°
Enters shadow 23:43:02 33° 51° (NE) 1,382 3.6 -35.6°
